Regional Weather Roundup
Issued by NWS Spokane, WA

Home | Current Version | Previous Version | Text Only | Print | Product List | Glossary On
Versions: 1 2 3 4 5 6 7 8 9 10 11 12 13 14 15 16 17 18 19 20 21 22 23 24 25 26 27 28 29 30 31 32 33 34 35 36 37 38 39 40 41 42 43 44 45 46 47 48 49 50
000
NZUS01 KOTX 200200
RWROTX
EASTERN WASHINGTON/NORTHERN IDAHO ROUNDUP
NATIONAL WEATHER SERVICE, SPOKANE WA
700 PM PDT SUN APR 19 2015

Note: "fair" indicated few or no clouds below 12,000 feet with no
significant weather and/or obstructions to visibility.

...NORTHEAST WASHINGTON AND NORTHERN IDAHO PANHANDLE...

CITY           SKY/WX    TMP DP  RH WIND       PRES   REMARKS
SPOKANE INTL   PTCLDY    67  27  22 NW7       29.99F
SPOKANE DOWNTO CLEAR     68  31  25 W6        29.98F
COEUR D ALENE  CLEAR     64  34  32 SW5       30.00S
DEER PARK      CLEAR     67  32  27 NW5       29.99F

...SOUTHEAST WASHINGTON AND SOUTHERN IDAHO PANHANDLE...

CITY           SKY/WX    TMP DP  RH WIND       PRES   REMARKS
WALLA WALLA    CLEAR     70  39  32 NE8       29.98F
PULLMAN/MOSCOW CLEAR     64  28  25 NW6       30.03F
LOWELL           N/A     56  41  57 N3        29.97F

...COLUMBIA BASIN...

CITY           SKY/WX    TMP DP  RH WIND       PRES   REMARKS
EPHRATA        CLEAR     70  31  23 S6        29.98F
MOSES LAKE     CLEAR     72  27  18 SW6       29.99F
TRI CITIES     CLEAR     72  40  31 MISG      29.97F
HERMISTON      CLEAR     72  32  23 NE6       29.96F
PENDLETON      CLEAR     67  32  27 NE9       29.98F

...EAST SLOPES CASCADES...

CITY           SKY/WX    TMP DP  RH WIND       PRES   REMARKS
THE DALLES     CLEAR     75  33  21 E5        29.93F
YAKIMA         CLEAR     75  30  19 SE5       29.97F
ELLENSBURG     CLEAR     73  27  18 N3        29.98F
WENATCHEE      CLEAR     72  29  20 SE8       29.97F
OMAK           CLEAR     70  31  23 VRB3      29.98F

...SOUTHERN BRITISH COLUMBIA...

CITY           SKY/WX    TMP DP  RH WIND       PRES   REMARKS

...WESTERN MONTANA...

CITY           SKY/WX    TMP DP  RH WIND       PRES   REMARKS
MISSOULA       CLEAR     58  26  29 N15       30.00F

...NEIGHBORING CITIES...

CITY           SKY/WX    TMP DP  RH WIND       PRES   REMARKS
SEATTLE        PTCLDY    64  42  44 N10       30.03F



USA.gov is the U.S. government's official web portal to all federal, state and local government web resources and services.